Time,TemperatureF,DewpointF,PressureIn,WindDirection,WindDirectionDegrees,WindSpeedMPH,WindSpeedGustMPH,Humidity,HourlyPrecipIn,Conditions,Clouds,dailyrainin,SolarRadiationWatts/m^2,SoftwareType,DateUTC
2013-02-18 00:21:00,20.0,19.0,-100.00,West,279,3.0,6.0,97,0.00,,,0.00,0.000000,,2013-02-18 06:21:00,
2013-02-18 00:32:00,20.0,19.0,-100.00,West,279,3.0,6.0,97,0.00,,,0.00,0.000000,,2013-02-18 06:32:00,
2013-02-18 00:42:00,20.0,19.0,-100.00,West,279,3.0,6.0,97,0.00,,,0.00,0.000000,,2013-02-18 06:42:00,
2013-02-18 00:51:00,19.0,19.0,-100.00,West,265,5.0,7.0,99,0.00,,,0.00,0.000000,,2013-02-18 06:51:00,
2013-02-18 01:11:00,19.0,19.0,-100.00,West,265,5.0,7.0,99,0.00,,,0.00,0.000000,,2013-02-18 07:11:00,
2013-02-18 01:22:00,19.0,19.0,-100.00,West,265,5.0,7.0,99,0.00,,,0.00,0.000000,,2013-02-18 07:22:00,
2013-02-18 01:32:00,19.0,19.0,-100.00,West,265,5.0,7.0,99,0.00,,,0.00,0.000000,,2013-02-18 07:32:00,
2013-02-18 01:42:00,19.0,19.0,-100.00,West,265,5.0,7.0,99,0.00,,,0.00,0.000000,,2013-02-18 07:42:00,
2013-02-18 01:51:00,21.0,21.0,-100.00,West,263,4.0,8.0,98,0.00,,,0.00,0.000000,,2013-02-18 07:51:00,
2013-02-18 02:21:00,21.0,21.0,-100.00,West,263,4.0,8.0,98,0.00,,,0.00,0.000000,,2013-02-18 08:21:00,
2013-02-18 02:32:00,21.0,21.0,-100.00,West,263,4.0,8.0,98,0.00,,,0.00,0.000000,,2013-02-18 08:32:00,
2013-02-18 02:42:00,21.0,21.0,-100.00,West,263,4.0,8.0,98,0.00,,,0.00,0.000000,,2013-02-18 08:42:00,
2013-02-18 02:51:00,22.0,22.0,-100.00,West,264,4.0,6.0,99,0.00,,,0.00,0.000000,,2013-02-18 08:51:00,
2013-02-18 03:22:00,22.0,22.0,-100.00,West,264,4.0,6.0,99,0.00,,,0.00,0.000000,,2013-02-18 09:22:00,
2013-02-18 03:32:00,22.0,22.0,-100.00,West,264,4.0,6.0,99,0.00,,,0.00,0.000000,,2013-02-18 09:32:00,
2013-02-18 03:42:00,22.0,22.0,-100.00,West,264,4.0,6.0,99,0.00,,,0.00,0.000000,,2013-02-18 09:42:00,
2013-02-18 03:51:00,31.0,31.0,-100.00,West,260,6.0,11.0,100,-99.99,,,0.00,0.000000,,2013-02-18 09:51:00,
2013-02-18 04:21:00,31.0,31.0,-100.00,West,260,6.0,11.0,100,-99.99,,,0.00,0.000000,,2013-02-18 10:21:00,
2013-02-18 04:31:00,31.0,31.0,-100.00,West,260,6.0,11.0,100,-99.99,,,0.00,0.000000,,2013-02-18 10:31:00,
2013-02-18 04:42:00,31.0,31.0,-100.00,West,260,6.0,11.0,100,-99.99,,,0.00,0.000000,,2013-02-18 10:42:00,
2013-02-18 04:51:00,35.0,32.0,-100.00,West,269,9.0,17.0,89,0.00,,,0.00,0.000000,,2013-02-18 10:51:00,
2013-02-18 05:11:00,35.0,32.0,-100.00,West,269,9.0,17.0,89,0.00,,,0.00,0.000000,,2013-02-18 11:11:00,
2013-02-18 05:22:00,35.0,32.0,-100.00,West,269,9.0,17.0,89,0.00,,,0.00,0.000000,,2013-02-18 11:22:00,
2013-02-18 05:32:00,35.0,32.0,-100.00,West,269,9.0,17.0,89,0.00,,,0.00,0.000000,,2013-02-18 11:32:00,
2013-02-18 05:42:00,35.0,32.0,-100.00,West,269,9.0,17.0,89,0.00,,,0.00,0.000000,,2013-02-18 11:42:00,
2013-02-18 06:22:00,32.0,30.0,-100.00,WNW,302,22.0,39.0,91,0.00,,,0.00,0.000000,,2013-02-18 12:22:00,
2013-02-18 06:32:00,32.0,30.0,-100.00,WNW,302,22.0,39.0,91,0.00,,,0.00,0.000000,,2013-02-18 12:32:00,
2013-02-18 06:42:00,32.0,30.0,-100.00,WNW,302,22.0,39.0,91,0.00,,,0.00,0.000000,,2013-02-18 12:42:00,
2013-02-18 06:51:00,25.0,21.0,-100.00,NW,312,25.0,34.0,84,0.00,,,0.00,0.000000,,2013-02-18 12:51:00,
2013-02-18 07:12:00,25.0,21.0,-100.00,NW,312,25.0,34.0,84,0.00,,,0.00,0.000000,,2013-02-18 13:12:00,
2013-02-18 07:22:00,25.0,21.0,-100.00,NW,312,25.0,34.0,84,0.00,,,0.00,0.000000,,2013-02-18 13:22:00,
2013-02-18 07:32:00,25.0,21.0,-100.00,NW,312,25.0,34.0,84,0.00,,,0.00,0.000000,,2013-02-18 13:32:00,
2013-02-18 07:42:00,25.0,21.0,-100.00,NW,312,25.0,34.0,84,0.00,,,0.00,0.000000,,2013-02-18 13:42:00,
2013-02-18 07:51:00,23.0,18.0,-100.00,NW,313,22.0,35.0,81,0.00,,,0.00,4.000000,,2013-02-18 13:51:00,
2013-02-18 08:11:00,23.0,18.0,-100.00,NW,313,22.0,35.0,81,0.00,,,0.00,4.000000,,2013-02-18 14:11:00,
2013-02-18 08:22:00,23.0,18.0,-100.00,NW,313,22.0,35.0,81,0.00,,,0.00,4.000000,,2013-02-18 14:22:00,
2013-02-18 08:33:00,23.0,18.0,-100.00,NW,313,22.0,35.0,81,0.00,,,0.00,4.000000,,2013-02-18 14:33:00,
2013-02-18 08:42:00,23.0,18.0,-100.00,NW,313,22.0,35.0,81,0.00,,,0.00,4.000000,,2013-02-18 14:42:00,
2013-02-18 08:51:00,20.0,14.0,-100.00,NW,313,25.0,36.0,77,0.00,,,0.00,42.000000,,2013-02-18 14:51:00,
2013-02-18 09:11:00,20.0,14.0,-100.00,NW,313,25.0,36.0,77,0.00,,,0.00,42.000000,,2013-02-18 15:11:00,
2013-02-18 09:22:00,20.0,14.0,-100.00,NW,313,25.0,36.0,77,0.00,,,0.00,42.000000,,2013-02-18 15:22:00,
2013-02-18 09:32:00,20.0,14.0,-100.00,NW,313,25.0,36.0,77,0.00,,,0.00,42.000000,,2013-02-18 15:32:00,
2013-02-18 09:42:00,20.0,14.0,-100.00,NW,313,25.0,36.0,77,0.00,,,0.00,42.000000,,2013-02-18 15:42:00,
2013-02-18 09:51:00,17.0,11.0,-100.00,NW,317,23.0,35.0,76,0.00,,,0.00,161.000000,,2013-02-18 15:51:00,
2013-02-18 10:12:00,17.0,11.0,-100.00,NW,317,23.0,35.0,76,0.00,,,0.00,161.000000,,2013-02-18 16:12:00,
2013-02-18 10:22:00,17.0,11.0,-100.00,NW,317,23.0,35.0,76,0.00,,,0.00,161.000000,,2013-02-18 16:22:00,
2013-02-18 10:42:00,17.0,11.0,-100.00,NW,317,23.0,35.0,76,0.00,,,0.00,161.000000,,2013-02-18 16:42:00,
2013-02-18 10:51:00,15.0,9.0,-100.00,NW,314,20.0,34.0,77,0.00,,,0.00,265.000000,,2013-02-18 16:51:00,
2013-02-18 11:22:00,15.0,9.0,-100.00,NW,314,20.0,34.0,77,0.00,,,0.00,265.000000,,2013-02-18 17:22:00,
2013-02-18 11:32:00,15.0,9.0,-100.00,NW,314,20.0,34.0,77,0.00,,,0.00,265.000000,,2013-02-18 17:32:00,
2013-02-18 11:42:00,15.0,9.0,-100.00,NW,314,20.0,34.0,77,0.00,,,0.00,265.000000,,2013-02-18 17:42:00,
2013-02-18 11:51:00,13.0,5.0,-100.00,NW,320,22.0,36.0,70,0.00,,,0.00,448.000000,,2013-02-18 17:51:00,
2013-02-18 12:12:00,13.0,5.0,-100.00,NW,320,22.0,36.0,70,0.00,,,0.00,448.000000,,2013-02-18 18:12:00,
2013-02-18 12:23:00,13.0,5.0,-100.00,NW,320,22.0,36.0,70,0.00,,,0.00,448.000000,,2013-02-18 18:23:00,
2013-02-18 12:32:00,13.0,5.0,-100.00,NW,320,22.0,36.0,70,0.00,,,0.00,448.000000,,2013-02-18 18:32:00,
2013-02-18 12:42:00,13.0,5.0,-100.00,NW,320,22.0,36.0,70,0.00,,,0.00,448.000000,,2013-02-18 18:42:00,
2013-02-18 12:51:00,13.0,5.0,-100.00,NW,317,24.0,36.0,70,0.00,,,0.00,628.000000,,2013-02-18 18:51:00,
2013-02-18 13:22:00,13.0,5.0,-100.00,NW,317,24.0,36.0,70,0.00,,,0.00,628.000000,,2013-02-18 19:22:00,
2013-02-18 13:33:00,13.0,5.0,-100.00,NW,317,24.0,36.0,70,0.00,,,0.00,628.000000,,2013-02-18 19:33:00,
2013-02-18 13:42:00,13.0,5.0,-100.00,NW,317,24.0,36.0,70,0.00,,,0.00,628.000000,,2013-02-18 19:42:00,
2013-02-18 13:51:00,12.0,4.0,-100.00,NW,321,21.0,34.0,70,0.00,,,0.00,577.000000,,2013-02-18 19:51:00,
2013-02-18 14:23:00,12.0,4.0,-100.00,NW,321,21.0,34.0,70,0.00,,,0.00,577.000000,,2013-02-18 20:23:00,
2013-02-18 14:33:00,12.0,4.0,-100.00,NW,321,21.0,34.0,70,0.00,,,0.00,577.000000,,2013-02-18 20:33:00,
2013-02-18 14:42:00,12.0,4.0,-100.00,NW,321,21.0,34.0,70,0.00,,,0.00,577.000000,,2013-02-18 20:42:00,
2013-02-18 14:51:00,11.0,7.0,-100.00,NW,319,23.0,35.0,82,0.00,,,0.00,443.000000,,2013-02-18 20:51:00,
2013-02-18 15:12:00,11.0,7.0,-100.00,NW,319,23.0,35.0,82,0.00,,,0.00,443.000000,,2013-02-18 21:12:00,
2013-02-18 15:22:00,11.0,7.0,-100.00,NW,319,23.0,35.0,82,0.00,,,0.00,443.000000,,2013-02-18 21:22:00,
2013-02-18 15:32:00,11.0,7.0,-100.00,NW,319,23.0,35.0,82,0.00,,,0.00,443.000000,,2013-02-18 21:32:00,
2013-02-18 15:42:00,11.0,7.0,-100.00,NW,319,23.0,35.0,82,0.00,,,0.00,443.000000,,2013-02-18 21:42:00,
2013-02-18 15:51:00,10.0,4.0,-100.00,NW,321,20.0,32.0,75,0.00,,,0.00,274.000000,,2013-02-18 21:51:00,
2013-02-18 16:12:00,10.0,4.0,-100.00,NW,321,20.0,32.0,75,0.00,,,0.00,274.000000,,2013-02-18 22:12:00,
2013-02-18 16:22:00,10.0,4.0,-100.00,NW,321,20.0,32.0,75,0.00,,,0.00,274.000000,,2013-02-18 22:22:00,
2013-02-18 16:33:00,10.0,4.0,-100.00,NW,321,20.0,32.0,75,0.00,,,0.00,274.000000,,2013-02-18 22:33:00,
2013-02-18 16:43:00,10.0,4.0,-100.00,NW,321,20.0,32.0,75,0.00,,,0.00,274.000000,,2013-02-18 22:43:00,
2013-02-18 16:51:00,7.0,1.0,-100.00,NW,319,22.0,32.0,77,0.00,,,0.00,146.000000,,2013-02-18 22:51:00,
2013-02-18 17:23:00,7.0,1.0,-100.00,NW,319,22.0,32.0,77,0.00,,,0.00,146.000000,,2013-02-18 23:23:00,
2013-02-18 17:33:00,7.0,1.0,-100.00,NW,319,22.0,32.0,77,0.00,,,0.00,146.000000,,2013-02-18 23:33:00,
2013-02-18 17:42:00,7.0,1.0,-100.00,NW,319,22.0,32.0,77,0.00,,,0.00,146.000000,,2013-02-18 23:42:00,
2013-02-18 17:51:00,6.0,1.0,-100.00,NW,318,19.0,31.0,81,0.00,,,0.00,29.000000,,2013-02-18 23:51:00,
2013-02-18 18:22:00,6.0,1.0,-100.00,NW,318,19.0,31.0,81,0.00,,,0.00,29.000000,,2013-02-19 00:22:00,
2013-02-18 18:34:00,6.0,1.0,-100.00,NW,318,19.0,31.0,81,0.00,,,0.00,29.000000,,2013-02-19 00:34:00,
2013-02-18 18:43:00,6.0,1.0,-100.00,NW,318,19.0,31.0,81,0.00,,,0.00,29.000000,,2013-02-19 00:43:00,
2013-02-18 18:51:00,5.0,0.0,-100.00,NW,325,20.0,32.0,80,0.00,,,0.00,1.000000,,2013-02-19 00:51:00,
2013-02-18 19:14:00,5.0,0.0,-100.00,NW,325,20.0,32.0,80,0.00,,,0.00,1.000000,,2013-02-19 01:14:00,
2013-02-18 19:24:00,5.0,0.0,-100.00,NW,325,20.0,32.0,80,0.00,,,0.00,1.000000,,2013-02-19 01:24:00,
2013-02-18 19:34:00,5.0,0.0,-100.00,NW,325,20.0,32.0,80,0.00,,,0.00,1.000000,,2013-02-19 01:34:00,
2013-02-18 19:43:00,5.0,0.0,-100.00,NW,325,20.0,32.0,80,0.00,,,0.00,1.000000,,2013-02-19 01:43:00,
2013-02-18 19:51:00,3.0,-3.0,-100.00,NNW,327,19.0,32.0,75,0.00,,,0.00,0.000000,,2013-02-19 01:51:00,
2013-02-18 20:14:00,3.0,-3.0,-100.00,NNW,327,19.0,32.0,75,0.00,,,0.00,0.000000,,2013-02-19 02:14:00,
2013-02-18 20:23:00,3.0,-3.0,-100.00,NNW,327,19.0,32.0,75,0.00,,,0.00,0.000000,,2013-02-19 02:23:00,
2013-02-18 20:34:00,3.0,-3.0,-100.00,NNW,327,19.0,32.0,75,0.00,,,0.00,0.000000,,2013-02-19 02:34:00,
2013-02-18 20:42:00,3.0,-3.0,-100.00,NNW,327,19.0,32.0,75,0.00,,,0.00,0.000000,,2013-02-19 02:42:00,
2013-02-18 20:51:00,2.0,-4.0,-100.00,NNW,328,22.0,33.0,74,0.00,,,0.00,0.000000,,2013-02-19 02:51:00,
2013-02-18 21:24:00,2.0,-4.0,-100.00,NNW,328,22.0,33.0,74,0.00,,,0.00,0.000000,,2013-02-19 03:24:00,
2013-02-18 21:34:00,2.0,-4.0,-100.00,NNW,328,22.0,33.0,74,0.00,,,0.00,0.000000,,2013-02-19 03:34:00,
2013-02-18 21:44:00,2.0,-4.0,-100.00,NNW,328,22.0,33.0,74,0.00,,,0.00,0.000000,,2013-02-19 03:44:00,
2013-02-18 21:51:00,0.0,-7.0,-100.00,NNW,330,20.0,34.0,72,0.00,,,0.00,0.000000,,2013-02-19 03:51:00,
2013-02-18 22:23:00,0.0,-7.0,-100.00,NNW,330,20.0,34.0,72,0.00,,,0.00,0.000000,,2013-02-19 04:23:00,
2013-02-18 22:33:00,0.0,-7.0,-100.00,NNW,330,20.0,34.0,72,0.00,,,0.00,0.000000,,2013-02-19 04:33:00,
2013-02-18 22:43:00,0.0,-7.0,-100.00,NNW,330,20.0,34.0,72,0.00,,,0.00,0.000000,,2013-02-19 04:43:00,
2013-02-18 22:51:00,0.0,-7.0,-100.00,NNW,328,19.0,27.0,70,0.00,,,0.00,0.000000,,2013-02-19 04:51:00,
2013-02-18 23:12:00,0.0,-7.0,-100.00,NNW,328,19.0,27.0,70,0.00,,,0.00,0.000000,,2013-02-19 05:12:00,
2013-02-18 23:22:00,0.0,-7.0,-100.00,NNW,328,19.0,27.0,70,0.00,,,0.00,0.000000,,2013-02-19 05:22:00,
2013-02-18 23:32:00,0.0,-7.0,-100.00,NNW,328,19.0,27.0,70,0.00,,,0.00,0.000000,,2013-02-19 05:32:00,
2013-02-18 23:43:00,0.0,-7.0,-100.00,NNW,328,19.0,27.0,70,0.00,,,0.00,0.000000,,2013-02-19 05:43:00,
2013-02-18 23:51:00,0.0,-7.0,-100.00,NW,325,18.0,29.0,71,0.00,,,0.00,0.000000,,2013-02-19 05:51:00,